User: anonymous   Login
Location: ActonStarParty
(42.4766°N, 71.4538°W)
Time: 05:23:27
(UTC-04:00)
Language:

Cosmos 1300 - Orbit

View from above orbital plane
View from above orbital plane
View from above satellite
View from above satellite

Ground track
Ground track

The orbit data is extracted from the following two-line orbital elements,

1 12785U 81082A   18115.69634132 +.00000453 +00000-0 +21232-4 0  9998
2 12785 082.5009 124.2601 0000943 129.5901 350.6696 15.17118802998980
Epoch (UTC): 25 April 2018 16:42:43
Eccentricity: 0.0000943
inclination: 82.5009°
perigee height: 514 km
apogee height: 515 km
right ascension of ascending node: 124.2601°
argument of perigee: 129.5901°
revolutions per day: 15.17118802
mean anomaly at epoch: 350.6696°
orbit number at epoch: 99898

The dashed part of the orbit path shows where the satellite is in the earth's shadow,  

DLR